WetterOnline ( http://www.wetteronline.de )

Wetter aktuell Westhofen

Aktuelles Wetter: Mannheim (100m)

6-stündlich | Neueste Meldungen
Ortszeit Temperatur Wetter
Di, 16.10. 20:00 18.2° C fast wolkenlos
Di, 16.10. 14:00 21.1° C wolkenlos
Di, 16.10. 8:00 5.6° C wolkenlos
Di, 16.10. 2:00 8.9° C wolkenlos
Mo, 15.10. 20:00 16.5° C wolkenlos
Mo, 15.10. 14:00 21.9° C wolkig
Mo, 15.10. 8:00 9.0° C bedeckt
Mo, 15.10. 2:00 10.8° C bedeckt
Ortszeit Temperatur Wetter
Di, 16.10. 22:30 14.2° C leicht bewölkt
Di, 16.10. 22:20 14.2° C leicht bewölkt
Di, 16.10. 22:10 13.5° C leicht bewölkt
Di, 16.10. 22:00 13.5° C wolkenlos
Di, 16.10. 21:50 13.5° C wolkenlos
Di, 16.10. 21:40 14.7° C wolkenlos
Di, 16.10. 21:30 13.4° C wolkenlos
Di, 16.10. 21:00 14.4° C wolkenlos
Di, 16.10. 20:30 15.0° C wolkenlos
Di, 16.10. 20:00 18.2° C fast wolkenlos
Di, 16.10. 19:30 20.2° C bewölkt
Ortszeit Relative Feuchte Sichtweite
Di, 16.10. 20:00 53% 35 km
Di, 16.10. 14:00 45% 13 km
Di, 16.10. 8:00 94% 6 km
Di, 16.10. 2:00 86% 14 km
Mo, 15.10. 20:00 58% 25 km
Mo, 15.10. 14:00 49% 19 km
Mo, 15.10. 8:00 87% 9 km
Mo, 15.10. 2:00 83% 16 km
Ortszeit Relative Feuchte Sichtweite
Di, 16.10. 22:30 72% 26 km
Di, 16.10. 22:20 72% -
Di, 16.10. 22:10 70% -
Di, 16.10. 22:00 72% 30 km
Di, 16.10. 21:50 72% -
Di, 16.10. 21:40 68% -
Di, 16.10. 21:30 70% 35 km
Di, 16.10. 21:00 68% 35 km
Di, 16.10. 20:30 60% 30 km
Di, 16.10. 20:00 53% 35 km
Di, 16.10. 19:30 50% 35 km
Ortszeit Niederschlagsmenge Niederschlagsart
Di, 16.10. 20:00 0.0 l/m2 in 12 Std. -
Di, 16.10. 14:00 0.0 l/m2 in 6 Std. -
Di, 16.10. 8:00 0.0 l/m2 in 12 Std. -
Di, 16.10. 2:00 0.0 l/m2 in 6 Std. -
Mo, 15.10. 20:00 0.0 l/m2 in 12 Std. -
Mo, 15.10. 14:00 0.0 l/m2 in 6 Std. -
Mo, 15.10. 8:00 0.0 l/m2 in 12 Std. -
Mo, 15.10. 2:00 0.0 l/m2 in 6 Std. -
Ortszeit Niederschlagsmenge Niederschlagsart
Di, 16.10. 22:30 0.0 l/m2 in 1 Std. -
Di, 16.10. 22:20 keine Meldung -
Di, 16.10. 22:10 keine Meldung -
Di, 16.10. 22:00 0.0 l/m2 in 1 Std. -
Di, 16.10. 21:50 keine Meldung -
Di, 16.10. 21:40 keine Meldung -
Di, 16.10. 21:30 0.0 l/m2 in 1 Std. -
Di, 16.10. 21:00 0.0 l/m2 in 1 Std. -
Di, 16.10. 20:30 0.0 l/m2 in 1 Std. -
Di, 16.10. 20:00 0.0 l/m2 in 1 Std. -
Di, 16.10. 19:30 0.0 l/m2 in 1 Std. -
Ortszeit Stärke Spitze Richtung
km/h Bft. km/h Grad Sektor
Di, 16.10. 20:00 2 1 19 90° O
Di, 16.10. 14:00 4 1 11 310° NW
Di, 16.10. 8:00 4 1 7 330° NW
Di, 16.10. 2:00 0 0 11 - -
Mo, 15.10. 20:00 4 1 18 10° N
Mo, 15.10. 14:00 7 2 14 330° NW
Mo, 15.10. 8:00 4 1 7 60° NO
Mo, 15.10. 2:00 4 1 7 340° N
Ortszeit Stärke Spitze Richtung
km/h Bft. km/h Grad Sektor
Di, 16.10. 22:30 4 1 11 320° NW
Di, 16.10. 22:20 4 1 - 320° NW
Di, 16.10. 22:10 7 2 - 330° NW
Di, 16.10. 22:00 0 0 7 - -
Di, 16.10. 21:50 0 0 - 350° N
Di, 16.10. 21:40 4 1 - 360° N
Di, 16.10. 21:30 4 1 7 20° N
Di, 16.10. 21:00 4 1 4 40° NO
Di, 16.10. 20:30 0 0 4 - -
Di, 16.10. 20:00 2 1 9 90° O
Di, 16.10. 19:30 6 1 9 30° NO
Ortszeit Untergrenze Bedeckung Gattung
total tief tief mittel hoch
Di, 16.10. 20:00 4200 m 1/8 1/8 - - -
Di, 16.10. 14:00 - 0/8 0/8 - - -
Di, 16.10. 8:00 - 0/8 0/8 - - -
Di, 16.10. 2:00 - 0/8 0/8 - - -
Mo, 15.10. 20:00 - 0/8 0/8 - - -
Mo, 15.10. 14:00 6000 m 8/8 8/8 - - -
Mo, 15.10. 8:00 3900 m 8/8 8/8 - - -
Mo, 15.10. 2:00 3300 m 8/8 8/8 - - -
Ortszeit Bedeckungsgrad in Achtel und Wolkenuntergrenze
Di, 16.10. 22:30 2(4500m)
Di, 16.10. 22:20 2(4500m)
Di, 16.10. 22:10 3(4500m)
Di, 16.10. 22:00 1(4500m)
Di, 16.10. 21:50 keine Wolken
Di, 16.10. 21:40 keine Wolken
Di, 16.10. 21:30 keine Wolken
Di, 16.10. 21:00 keine Wolken
Di, 16.10. 20:30 keine Wolken
Di, 16.10. 20:00 1(4200m)
Di, 16.10. 19:30 7(4200m)
Ortszeit Luftdruck NN (hPa) Tendenz (hPa in 3 Std.)
Di, 16.10. 20:00 1019 + 0,8
Di, 16.10. 14:00 1018 - 0,6
Di, 16.10. 8:00 1019 + 1,2
Di, 16.10. 2:00 1017 + 1,0
Mo, 15.10. 20:00 1015 + 1,3
Mo, 15.10. 14:00 1014 - 1,1
Mo, 15.10. 8:00 1014 + 1,1
Mo, 15.10. 2:00 1012 + 0,6
Ortszeit Luftdruck NN (hPa) Tendenz (hPa in 3 Std.)
Di, 16.10. 22:30 1019 + 0,7
Di, 16.10. 22:20 1019 keine Meldung
Di, 16.10. 22:10 1019 keine Meldung
Di, 16.10. 22:00 1019 + 0,7
Di, 16.10. 21:50 1019 keine Meldung
Di, 16.10. 21:40 1019 keine Meldung
Di, 16.10. 21:30 1019 + 0,9
Di, 16.10. 21:00 1019 + 0,8
Di, 16.10. 20:30 1019 + 0,9
Di, 16.10. 20:00 1019 + 0,8
Di, 16.10. 19:30 1019 + 0,5
Ortszeit Schneehöhe (cm)
Di, 16.10. 20:00 0
Di, 16.10. 14:00 0
Di, 16.10. 8:00 0
Di, 16.10. 2:00 0
Mo, 15.10. 20:00 0
Mo, 15.10. 14:00 0
Mo, 15.10. 8:00 0
Mo, 15.10. 2:00 0
Ortszeit Schneehöhe (cm)
Di, 16.10. 22:30 0
Di, 16.10. 22:20 0
Di, 16.10. 22:10 0
Di, 16.10. 22:00 0
Di, 16.10. 21:50 0
Di, 16.10. 21:40 0
Di, 16.10. 21:30 0
Di, 16.10. 21:00 0
Di, 16.10. 20:30 0
Di, 16.10. 20:00 0
Di, 16.10. 19:30 0
Link zu dieser Seite / Seite empfehlen

Das Wetter in ...